Flag for France Weather past 2 weeks in Rouen, France

Now
48 °F

Clear.


Feels Like: 44 °F
Forecast: 38 / 56 °F
Wind: 9 mph from Northwest

Location: Rouen Airport

Current Time: Apr 27, 2015 at 9:17:57 PM

Latest Report: Apr 27, 2015 at 8:30 PM


Visibility: N/A

Pressure: 29.89 "Hg

Humidity: 54%

Dew point: 32 °F

Location of RouenLocation

Historic Weather in Rouen — Graph

°F

Rouen temperature yesterday

Maximum temperature yesterday: 59 °F (at 11:00 AM)
Minimum temperature yesterday: 48 °F (at 11:00 PM)
Average temperature yesterday: 54 °F

Past Weeks' High & Low Weather Summary

 TemperatureHumidityPressure
High79 °F (Apr 15, 4:00 PM)100% (Apr 26, 12:00 AM)30.51 "Hg (Apr 26, 12:00 AM)
Low41 °F (Apr 13, 6:00 AM)23% (Apr 15, 5:30 PM)29.65 "Hg (Apr 26, 7:00 PM)
Average55 °F66%30.09 "Hg
* Reported Apr 12 8:00 PM — Apr 27 8:00 PM, Rouen, Weather by CustomWeather, © 2015

Note: Actual official high and low records may vary slightly from our data, if they occured in-between our weather recording intervals... More about our weather records

Advertising

Rouen weather history for previous 24 hours

 ConditionsComfort  
Time TempWeatherWind HumidityBarometerVisibility
8:00 PM
Mon, Apr 27
50 °FPassing clouds.13 mph50%29.89 "HgN/A
7:30 PM50 °FPartly sunny.14 mph50%29.89 "HgN/A
7:00 PM52 °FScattered clouds.12 mph47%29.86 "HgN/A
6:30 PM52 °FPassing clouds.13 mph47%29.86 "HgN/A
6:00 PM54 °FClear.15 mph44%29.86 "HgN/A
5:30 PM54 °FPassing clouds.14 mph47%29.86 "HgN/A
5:00 PM52 °FPassing clouds.14 mph47%29.83 "HgN/A
4:30 PM54 °FPartly sunny.10 mph51%29.83 "HgN/A
4:00 PM54 °FPartly sunny.13 mph47%29.83 "HgN/A
3:30 PM54 °FBroken clouds.15 mph51%29.83 "HgN/A
3:00 PM54 °FBroken clouds.12 mph54%29.83 "HgN/A
2:30 PM52 °FPartly sunny.14 mph54%29.83 "HgN/A
2:00 PM52 °FScattered clouds.12 mph47%29.83 "HgN/A
1:30 PM54 °FPartly sunny.10 mph47%29.80 "HgN/A
1:00 PM54 °FPartly sunny.12 mph47%29.83 "HgN/A
12:30 PM54 °FScattered clouds.12 mph51%29.83 "HgN/A
12:00 PM52 °FPassing clouds.14 mph50%29.80 "HgN/A
11:30 AM52 °FClear.16 mph50%29.80 "HgN/A
11:00 AM50 °FClear.15 mph50%29.80 "HgN/A
10:30 AM50 °FClear.16 mph50%29.80 "HgN/A
10:00 AM48 °FClear.15 mph62%29.77 "HgN/A
9:30 AM48 °FClear.15 mph66%29.77 "HgN/A
9:00 AM45 °FClear.12 mph81%29.77 "HgN/A
8:30 AM45 °FOvercast.12 mph81%29.77 "HgN/A
8:00 AM43 °FPartly sunny.12 mph87%29.74 "HgN/A
7:30 AM43 °FClear.12 mph87%29.74 "HgN/A
7:00 AM43 °FClear.12 mph87%29.74 "HgN/A
6:30 AM43 °FPassing clouds.12 mph93%29.71 "HgN/A
6:00 AM45 °FPassing clouds.10 mph87%29.71 "HgN/A
5:30 AM45 °FPassing clouds.10 mph87%29.71 "HgN/A
5:00 AM46 °FOvercast.10 mph87%29.71 "HgN/A
4:30 AM46 °FOvercast.13 mph87%29.71 "HgN/A
4:00 AM48 °FLow clouds.12 mph87%29.71 "Hg5 mi
3:30 AM48 °FLow clouds.12 mph87%29.71 "Hg4 mi
3:00 AM48 °FFog.14 mph87%29.71 "Hg3 mi
2:30 AM48 °FFog.12 mph94%29.71 "Hg2 mi
2:00 AM50 °FFog.14 mph88%29.71 "Hg2 mi
1:30 AM50 °FFog.9 mph94%29.71 "Hg2 mi
1:00 AM48 °FFog.9 mph100%29.71 "Hg2 mi
12:30 AM48 °FFog.8 mph94%29.71 "Hg3 mi
12:00 AM48 °FLow clouds.8 mph94%29.71 "Hg4 mi
11:30 PM
Sun, Apr 26
48 °FLow clouds.9 mph94%29.71 "Hg4 mi
11:00 PM48 °FLow clouds.12 mph94%29.71 "Hg5 mi
10:30 PM50 °FLow clouds.12 mph94%29.71 "Hg4 mi
10:00 PM50 °FFog.10 mph94%29.68 "Hg3 mi
9:30 PM52 °FLow clouds.12 mph88%29.68 "Hg6 mi
9:00 PM52 °FPartly sunny.8 mph94%29.68 "HgN/A
Weather by CustomWeather, © 2015

See weather overviewHow to use our weather pages